Orangeburg, SC

10:23 AM EDT on June 26, 2017 (GMT -0400)
Orangeburg Municipal

Weather History for KOGB - May, 2014

Change the Weather History Date:

Thursday, May 29, 2014

  Actual Average Record
Temperature  
Mean Temperature 79 °F 75 °F  
Max Temperature 91 °F 86 °F 95 °F (1964)
Min Temperature 66 °F 64 °F 50 °F (1961)
Degree Days  
Heating Degree Days 0 0  
Month to date heating degree days 6 10  
Since 1 July heating degree days 2334 2327  
Cooling Degree Days 14 10  
Month to date cooling degree days 245 198  
Year to date cooling degree days 334 283  
Growing Degree Days 28 (Base 50)    
Moisture  
Dew Point 65 °F    
Average Humidity 73    
Maximum Humidity 93    
Minimum Humidity 38    
Precipitation  
Precipitation 1.41 in 0.16 in 3.28 in (2012)
Month to date precipitation 4.92 2.89  
Year to date precipitation 17.44 17.29  
Sea Level Pressure  
Sea Level Pressure 30.04 in    
Wind  
Wind Speed 4 mph (SE)    
Max Wind Speed 20 mph    
Max Gust Speed 29 mph    
Visibility 8 miles    
Events Rain , Thunderstorm    
T = Trace of Precipitation, MM = Missing Value Source: NWS Daily Summary

Daily Weather History Graph

Daily Weather History Graph

Search for Another Location

Airport or City:

Trip Planner

Search our weather history database for the weather conditions in past years. The results will help you decide how hot, cold, wet, or windy it might be!

Date:

Astronomy

May. 29, 2014 Rise Set
Actual Time 6:15 AM EDT 8:26 PM EDT
Civil Twilight 5:47 AM EDT 8:54 PM EDT
Nautical Twilight 5:12 AM EDT 9:29 PM EDT
Astronomical Twilight 4:35 AM EDT 10:06 PM EDT
Moon 7:05 AM EDT (5/29) 9:17 PM EDT (5/29)
Length of Visible Light 15h 07m
Length of Day
14h 10m
New Moon, 1% of the Moon is Illuminated
May 29
New Moon
Jun 5
First Quarter
Jun 13
Full
Jun 19
Last Quarter
Jun 27
New

Hourly Weather History & Observations

Time (EDT) Temp. Heat Index Dew Point Humidity Pressure Visibility Wind Dir Wind Speed Gust Speed Precip Events Conditions
12:53 AM 71.1 °F - 64.9 °F 81% 30.03 in 10.0 mi Calm Calm - N/A   Clear
2:53 AM 69.1 °F - 64.9 °F 87% 30.01 in 10.0 mi Calm Calm - N/A   Clear
4:53 AM 68.0 °F - 64.0 °F 87% 30.00 in 10.0 mi Calm Calm - N/A   Clear
5:53 AM 66.0 °F - 64.0 °F 93% 30.01 in 8.0 mi Calm Calm - N/A   Clear
6:53 AM 66.9 °F - 64.0 °F 90% 30.02 in 6.0 mi Calm Calm - N/A   Clear
7:53 AM 70.0 °F - 66.0 °F 87% 30.04 in 7.0 mi Calm Calm - N/A   Clear
8:53 AM 75.9 °F - 68.0 °F 76% 30.05 in 9.0 mi WSW 3.5 mph - N/A   Clear
9:53 AM 80.1 °F 82.1 °F 66.0 °F 62% 30.06 in 10.0 mi West 5.8 mph - N/A   Clear
10:53 AM 82.9 °F 85.0 °F 66.0 °F 56% 30.06 in 10.0 mi NW 4.6 mph - N/A   Clear
11:53 AM 86.0 °F 87.6 °F 64.9 °F 49% 30.06 in 10.0 mi Calm Calm - N/A   Clear
12:53 PM 87.1 °F 88.9 °F 64.9 °F 48% 30.05 in 10.0 mi Variable 3.5 mph - N/A   Clear
1:53 PM 90.0 °F 89.7 °F 60.1 °F 37% 30.04 in 10.0 mi South 8.1 mph - N/A   Clear
2:53 PM 90.0 °F 91.3 °F 64.0 °F 42% 30.01 in 10.0 mi Calm Calm - N/A   Clear
3:53 PM 91.0 °F 91.5 °F 62.1 °F 38% 29.97 in 10.0 mi SSW 8.1 mph - N/A   Clear
4:53 PM 90.0 °F 91.3 °F 64.0 °F 42% 29.96 in 10.0 mi SW 9.2 mph - N/A   Clear
6:04 PM 84.9 °F 86.6 °F 64.9 °F 51% 29.98 in 10.0 mi West 12.7 mph 18.4 mph N/A Thunderstorm Thunderstorm
6:40 PM 79.0 °F - 62.1 °F 56% 29.99 in 10.0 mi SSW 12.7 mph - N/A Thunderstorm Thunderstorm
6:53 PM 81.0 °F 82.2 °F 63.0 °F 54% 29.98 in 10.0 mi South 9.2 mph - N/A Thunderstorm Thunderstorm
7:06 PM 82.0 °F 83.8 °F 64.9 °F 56% 29.99 in 10.0 mi South 6.9 mph - N/A   Mostly Cloudy
7:53 PM 81.0 °F 83.0 °F 66.0 °F 60% 29.99 in 10.0 mi South 5.8 mph - N/A   Partly Cloudy
8:53 PM 77.0 °F - 69.1 °F 76% 30.02 in 10.0 mi Calm Calm - N/A Thunderstorm Overcast
9:31 PM 75.9 °F - 64.9 °F 69% 30.06 in 10.0 mi Variable 6.9 mph - N/A Thunderstorm Thunderstorm
9:53 PM 73.0 °F - 66.0 °F 79% 30.05 in 10.0 mi East 12.7 mph 18.4 mph N/A Thunderstorm Thunderstorm
9:59 PM 71.1 °F - 66.0 °F 84% 30.07 in 8.0 mi East 11.5 mph 20.7 mph 0.00 in Rain , Thunderstorm Light Thunderstorms and Rain
10:06 PM 69.1 °F - 66.0 °F 90% 30.07 in 1.8 mi East 15.0 mph 25.3 mph 0.13 in Rain , Thunderstorm Heavy Thunderstorms and Rain
10:11 PM 69.1 °F - 66.0 °F 90% 30.07 in 1.8 mi East 12.7 mph 25.3 mph 0.14 in Rain , Thunderstorm Thunderstorms and Rain
10:14 PM 69.1 °F - 66.0 °F 90% 30.08 in 2.5 mi East 15.0 mph 28.8 mph 0.17 in Rain , Thunderstorm Thunderstorms and Rain
10:32 PM 69.1 °F - 66.0 °F 90% 30.11 in 1.5 mi East 9.2 mph - 0.53 in Rain , Thunderstorm Heavy Thunderstorms and Rain
10:53 PM 68.0 °F - 66.0 °F 93% 30.11 in 1.2 mi ENE 10.4 mph - 1.16 in Rain , Thunderstorm Heavy Thunderstorms and Rain
10:59 PM 68.0 °F - 66.0 °F 93% 30.11 in 2.0 mi NE 10.4 mph - 0.03 in Rain , Thunderstorm Heavy Thunderstorms and Rain
11:02 PM 68.0 °F - 66.0 °F 93% 30.12 in 3.0 mi ENE 4.6 mph - 0.03 in Rain , Thunderstorm Thunderstorms and Rain
11:31 PM 69.1 °F - 66.0 °F 90% 30.10 in 7.0 mi SE 4.6 mph - 0.07 in Rain Light Rain
11:38 PM 69.1 °F - 66.0 °F 90% 30.11 in 7.0 mi SSW 3.5 mph - 0.07 in Rain , Thunderstorm Light Thunderstorms and Rain
11:53 PM 69.1 °F - 66.0 °F 90% 30.10 in 4.0 mi ENE 3.5 mph - 0.11 in Rain , Thunderstorm Rain